GW0463 Weather Reports


Display with metric or nautical units.
time (UTC)temp
F
wind
direction
speed
MPH
gust
MPH
rain 1hr
in
rain 24hr
in
rain mn
in
humidity
%
barometer
mb
20260505101557 54 0 0.0 0.0 0.00 0.00 0.00 58 1007.7
20260505100100 54 0 0.0 0.0 0.00 0.00 0.00 58 1007.7
20260505094558 54 0 0.0 1.0 0.00 0.00 0.00 57 1007.7
20260505093101 54 0 0.0 2.0 0.00 0.00 0.00 57 1007.8
20260505091554 54 0 0.0 1.0 0.00 0.00 0.00 56 1007.8
20260505090104 55 0 0.0 0.0 0.00 0.00 0.00 56 1007.9
20260505084554 55 0 0.0 0.0 0.00 0.00 0.00 56 1007.9
20260505083102 56 0 0.0 1.0 0.00 0.00 0.00 55 1007.9
20260505081557 56 0 0.0 3.0 0.00 0.00 0.00 55 1008.1
20260505080055 57 0 0.0 7.0 0.00 0.00 0.00 55 1008.2
20260505074552 57 0 0.0 7.0 0.00 0.00 0.00 54 1008.3
20260505073059 58 0 2.0 6.0 0.00 0.00 0.00 55 1008.6
20260505071553 58 171 0.0 5.0 0.00 0.00 0.00 55 1008.7
20260505070052 58 0 1.0 4.0 0.00 0.00 0.00 54 1008.6
20260505064554 58 204 0.0 6.0 0.00 0.00 0.00 53 1008.8
20260505063053 59 0 0.0 3.0 0.00 0.00 0.00 52 1008.6
20260505061554 59 202 3.0 10.0 0.00 0.00 0.00 51 1008.2
20260505060059 59 0 1.0 3.0 0.00 0.00 0.00 48 1007.9
20260505054559 59 0 0.0 2.0 0.00 0.00 0.00 47 1007.6
20260505053105 58 194 0.0 3.0 0.00 0.00 0.00 47 1007.5
20260505051553 59 0 0.0 0.0 0.00 0.00 0.00 46 1007.3
20260505041551 59 0 0.0 0.0 0.00 0.00 0.00 42 1006.6
20260505040053 60 0 0.0 0.0 0.00 0.00 0.00 41 1006.3
20260505034553 60 0 0.0 0.0 0.00 0.00 0.00 42 1006.0
20260505033110 61 0 0.0 0.0 0.00 0.00 0.00 40 1005.9
20260505031552 62 0 0.0 0.0 0.00 0.00 0.00 36 1005.7
20260505030058 64 0 0.0 0.0 0.00 0.00 0.00 33 1005.5
20260505024552 66 0 0.0 0.0 0.00 0.00 0.00 30 1005.3
20260505023101 68 0 0.0 0.0 0.00 0.00 0.00 28 1005.2
20260505021555 69 0 0.0 0.0 0.00 0.00 0.00 27 1005.2
20260505020056 71 0 0.0 0.0 0.00 0.00 0.00 26 1005.1
20260505014554 71 0 0.0 6.0 0.00 0.00 0.00 25 1004.9
20260505013051 72 144 1.0 6.0 0.00 0.00 0.00 24 1004.9
20260505011559 73 0 1.0 7.0 0.00 0.00 0.00 24 1005.1
20260505010058 73 197 2.0 7.0 0.00 0.00 0.00 23 1005.1
20260505004558 74 212 2.0 9.0 0.00 0.00 0.00 22 1005.1
20260505003051 74 215 3.0 9.0 0.00 0.00 0.00 21 1005.3
20260505001550 74 199 3.0 8.0 0.00 0.00 0.00 24 1005.5
20260505000101 74 209 4.0 9.0 0.00 0.00 0.00 22 1005.6
20260504234615 74 194 4.0 10.0 0.00 0.00 0.00 23 1005.6
20260504233052 74 250 4.0 10.0 0.00 0.00 0.00 24 1005.5
20260504231559 74 186 5.0 14.0 0.00 0.00 0.00 24 1005.4
20260504230052 75 235 7.0 13.0 0.00 0.00 0.00 24 1005.4
20260504224603 77 183 2.0 9.0 0.00 0.00 0.00 17 1005.4
20260504223056 78 239 4.0 8.0 0.00 0.00 0.00 18 1005.4
20260504221603 77 284 3.0 7.0 0.00 0.00 0.00 16 1005.5
20260504220057 77 202 2.0 10.0 0.00 0.00 0.00 16 1005.6
20260504214603 78 294 3.0 8.0 0.00 0.00 0.00 17 1005.9
20260504213109 78 234 1.0 5.0 0.00 0.00 0.00 20 1006.2
20260504211557 77 208 1.0 7.0 0.00 0.00 0.00 18 1006.3
20260504210105 77 198 3.0 10.0 0.00 0.00 0.00 17 1006.6
20260504204636 77 0 1.0 8.0 0.00 0.00 0.00 20 1006.7
20260504203059 76 248 3.0 7.0 0.00 0.00 0.00 20 1006.8
20260504201559 75 0 2.0 7.0 0.00 0.00 0.00 20 1007.1
20260504194558 75 0 2.0 11.0 0.00 0.00 0.00 19 1007.6
20260504193055 74 245 2.0 8.0 0.00 0.00 0.00 24 1007.7
20260504191554 74 0 3.0 8.0 0.00 0.00 0.00 24 1007.8
20260504190101 74 261 2.0 7.0 0.00 0.00 0.00 21 1008.1
20260504184604 74 271 2.0 8.0 0.00 0.00 0.00 22 1008.1
20260504183100 75 268 2.0 6.0 0.00 0.00 0.00 22 1008.5
20260504181557 74 0 0.0 4.0 0.00 0.00 0.00 24 1008.6
20260504180055 74 0 0.0 4.0 0.00 0.00 0.00 26 1008.8
20260504174554 74 0 0.0 6.0 0.00 0.00 0.00 24 1008.9
20260504173056 73 0 0.0 4.0 0.00 0.00 0.00 26 1008.9
20260504171557 72 192 0.0 4.0 0.00 0.00 0.00 25 1009.1